HAWK-6B

Last updated on Fri Dec 29 2023 00:03:29 GMT+0000 (Coordinated Universal Time)

1 55324U 23011A 23361.94287739 .00004757 00000+0 30394-3 0 9994 2 55324 40.5160 160.4325 0004679 24.2503 335.8521 15.09224754 50854
UTC large
Height (km)
Speed (km/s)
/
Latitude / Longitude
Inclination (degrees)
Orbital Period (minutes)
Azimuth
Elevation
Range (km)
Doppler Factor

Next 0 passes for location: London (51.5072 / 0.1276)

Sorry there are no passes over London.